STARLINK-34448, 64291

Orbit data source: Space-Track

STARLINK-34448, 64291 is a payload satellite owned by SpaceX/Seattle (US) in LEO that was launched on Sun, 08 Jun 2025 UTC via an FALCON 9 launch vehicle from the Air Force Western Test Range (AFWTR). Payload-class satellites include a variety of spacecraft equipped with specific instruments for various scientific and technological missions. These include communications satellites like Starlink; space stations such as the ISS; scientific satellites like the Hubble; Earth observation satellites from companies like Planet Labs, Umbra, and HawkEye 360; GPS; miniature CubeSats for education and research; and military/defense satellites.

Loading next visibility...
Identifier
64291, 2025-123A
Orbit
LEO
Country
Flag of USUS
Related business
Manufacturer
SpaceX/Seattle
Mission
Operational Commercial Communications
Bus & Motor
STARLINK V2MO, Unknown motor
Mass
575 kg wet, ~530 kg dry
Launch date (UTC)
2025-06-08 (10 months ago)
Launch vehicle
FALCON 9
Launch site
Air Force Western Test Range (AFWTR)
Object type
Payload
Rocket body
Debris
Shape & HBR
Box + 2 Pan, 17.7 m
Radar Cross Section
36.964 m², Large (>1 m²)

Expand to show TLE details & history
Last TLE update: 10 hours ago

TLE from 10 hours ago
0 STARLINK-34448
1 64291U 25123A   26093.83335647 -.00002843  00000-0 -23058-3 0  9994
2 64291  69.9996 131.0784 0003353 266.9907 126.1056 14.98324722  5759
Epoch: 2026-04-03T20:00Z
TLE epoch observation values (Epoch: 2026-04-03T20:00:01.999Z)
Latitude
30.96849°
Longitude
11.45496°
Altitude
576.838 km
Speed
7.575 km/s
True Right ascension
09h 34m 30s
True Declination
30° 48' 47"
Sunlit
Object was in full shadow at epoch
Visualization orbit readout
Latitude
Unknown
Longitude
Unknown
Altitude
Unknown
Speed
Unknown
Apparent Right ascension
Unknown
Apparent Declination
Unknown
Sunlit
N/A
Visualization observer readout
Local Sidereal Time
11:21:23
Azimuth
Unknown
Elevation
Unknown
Doppler factor
Unknown
Orbital elements
Apogee altitude
572.35 km
Perigee altitude
567.691 km
Semi-major axis
6,948.157 km
Eccentricity
0.00034
Inclination
69.9996°
RAAN
131.0784°
Arg. of periapsis
266.9907°
True anomaly
126.13664°
Mean anomaly
126.1056°
Eccentric anomaly
126.12112°
Mean motion
3.74747 °/min
Orbital period
96.06 mins
BSTAR
-0.00023058
Loading maneuver chart data...
Computing Atmospheric mass density...
Loading historical data...
Loading historical data...
Loading historical data...
Loading historical data...
Loading historical data...
Loading historical data...
Loading historical data...

Documentation

Showing up to 5 results
|